CAPE
0 0 0 0 0 0 0 0 0 128 146 50 6 0 0 94 138 213 48 17 9 15 37 54 4 10 10 139 24 476 262 668 86 403 765 567 242 117 338 378 165 634 132 1398
0 0 0 0 0 0 0 0 0 175 476 246 14 0 0 0 108 149 3 3 7 9 30 37 2 7 9 55 42 531 629 484 152 136 687 407 245 740 621 715 589 806 424 1421
0 0 0 0 0 0 0 0 0 96 71 277 256 353 15 22 401 125 45 115 11 12 20 10 0 0 23 77 142 547 506 746 383 272 676 146 364 117 0 86 506 1115 1057 1281
0 0 0 0 0 0 0 0 0 97 68 80 304 106 162 651 343 195 82 102 41 50 41 48 8 22 7 74 175 487 747 779 453 1032 636 244 219 318 321 99 394 1267 1389 1140
0 0 0 0 0 0 0 0 1 62 28 45 112 101 241 541 493 267 292 159 88 51 91 69 95 51 55 79 211 291 997 730 108 691 974 478 330 674 197 720 1029 1100 1096 1302
0 0 0 0 0 0 0 0 0 2 3 4 0 30 236 555 399 546 32 46 247 307 178 45 78 93 64 23 162 254 1044 693 346 463 1047 846 184 0 0 87 212 941 1197 1439
0 0 0 0 0 0 0 0 0 0 25 5 5 25 231 297 505 254 160 24 31 307 162 74 85 198 169 74 158 246 512 1092 1015 614 1035 888 254 0 0 201 499 847 1050 1119
0 0 0 0 0 0 0 0 0 0 0 0 2 244 112 85 72 50 1 169 100 186 280 173 134 201 204 82 185 274 343 1093 1122 665 959 805 803 415 320 338 189 649 262 837
1 0 0 0 0 0 0 0 0 1 0 0 301 290 110 1 3 0 0 71 83 171 101 306 146 43 246 46 85 330 595 916 1243 957 1193 1125 860 829 345 15 31 580 63 791
0 0 0 0 0 0 0 1 0 0 24 28 464 334 316 181 25 0 0 0 0 3 22 14 1 0 6 84 137 729 998 1087 1328 1430 1507 1578 1710 1293 1106 886 917 700 633 506
0 0 1 1 0 0 1 0 6 0 0 0 76 48 23 42 0 0 0 0 0 1 4 7 6 2 1 0 3 58 102 521 1193 1457 1524 1567 1618 1510 1299 1376 1400 824 389 27
0 0 0 0 0 0 0 20 22 0 0 1 71 8 0 0 0 0 0 0 0 2 2 3 3 2 1 2 1 2 3 2 0 1 602 1541 1740 1733 1628 1608 1264 1357 589 388
0 0 0 0 7 0 0 0 0 0 0 10 39 23 0 0 0 0 0 0 0 0 0 0 0 1 2 2 1 2 2 1 2 0 25 400 1454 1674 1592 1681 1803 2014 739 190
0 0 0 0 0 0 0 0 0 0 0 120 39 9 0 0 0 0 0 0 0 0 0 0 0 0 2 6 4 2 5 4 3 0 0 35 9 81 697 1744 2113 2108 2094 1533
0 0 0 0 0 0 0 0 0 0 0 178 164 51 0 0 0 0 0 0 0 0 0 0 0 0 0 0 0 0 0 0 1 0 0 2 28 0 0 150 1048 1944 2085 2169
0 15 0 0 0 0 0 0 0 0 217 295 275 16 0 0 0 0 0 0 0 0 0 0 0 0 0 0 0 0 0 0 0 0 0 0 0 111 176 110 356 1005 1547 1924
13 18 0 0 0 0 0 0 0 129 277 196 73 0 0 0 0 0 0 0 0 0 0 0 0 0 0 0 0 0 0 0 0 0 0 1 1 0 0 64 38 18 1008 1455
0 13 0 0 0 0 0 0 0 0 128 47 0 0 0 0 0 0 0 0 0 0 0 0 0 0 0 0 0 0 0 0 0 0 0 0 0 0 0 10 11 0 112 494
0 0 0 0 0 0 0 0 0 0 22 198 15 0 0 0 0 0 0 0 0 0 0 0 0 0 0 0 0 0 0 0 0 0 0 0 0 0 0 0 0 0 1 20
0 0 0 5 19 0 0 0 0 0 0 166 32 0 0 0 0 0 0 0 0 0 0 0 0 0 0 0 0 0 0 0 0 0 0 0 0 0 0 0 0 0 0 0
0 0 0 0 29 32 0 0 0 0 16 7 0 0 0 0 0 0 0 0 0 0 0 0 0 0 0 0 0 0 0 0 0 0 0 0 0 0 0 0 0 0 0 0
0 1 20 0 3 14 0 0 0 0 0 0 0 0 0 0 0 0 0 0 0 0 0 0 0 0 0 0 0 0 0 0 0 0 0 0 0 0 0 0 0 0 0 0
0 18 0 57 32 0 0 0 3 0 0 0 0 0 0 0 0 0 0 0 0 0 0 0 0 0 0 0 0 0 0 0 0 0 0 0 0 0 0 0 0 0 0 0
1 0 0 0 118 46 0 0 0 0 0 0 0 0 0 0 0 0 0 0 0 0 0 0 0 0 0 0 0 0 0 0 0 0 0 0 0 0 0 0 0 0 0 0
22 42 1 0 0 0 2 0 0 0 0 0 0 0 0 0 0 0 0 0 0 0 0 0 0 0 0 0 0 0 0 0 0 0 0 0 0 0 0 0 0 0 0 0
2 44 16 22 124 201 86 17 0 0 0 0 0 0 0 0 0 0 0 0 0 0 0 0 0 0 0 0 0 0 0 0 0 0 0 0 0 0 0 0 0 0 0 0
CIN
0 0 0 0 0 0 0 0 0 -11 -56 -196 -300 0 0 -220 -229 -30 -49 -12 -36 -43 -30 -51 -16 -83 -110 -100 -93 -32 -44 -79 -112 -48 -36 -73 -106 -129 -133 -175 -167 -126 -116 -31
0 0 0 0 0 0 0 0 0 -37 -67 -200 -248 -18 0 0 -240 -25 -14 -22 -36 -69 -42 -47 -12 -61 -90 -109 -97 -54 -67 -76 -98 -73 -58 -63 -90 -83 -91 -90 -107 -103 -113 -38
0 0 0 0 0 0 0 0 0 -58 -133 -151 -25 -35 -132 -121 -37 -23 -37 -42 -47 -76 -46 -39 0 0 -104 -115 -108 -72 -53 -46 -79 -67 -61 -125 -111 -135 0 -141 -94 -57 -53 -37
0 0 0 0 0 0 0 0 0 -70 -105 -128 -97 -85 -63 -9 -25 -56 -60 -82 -71 -40 -52 -47 -49 -55 -74 -111 -139 -78 -60 -44 -54 -41 -40 -87 -72 -89 -101 -134 -114 -47 -58 -31
0 0 0 0 0 0 0 0 -8 -35 -58 -53 -148 -49 -132 -57 -23 -68 -27 -91 -67 -44 -43 -41 -42 -56 -113 -86 -104 -102 -55 -44 -84 -40 -27 -63 -96 -114 -151 -109 -81 -42 -42 -37
0 0 0 0 0 0 0 0 0 -15 -53 -17 0 -65 -87 -58 -88 -25 -159 -145 -81 -49 -68 -68 -58 -72 -97 -98 -105 -97 -55 -45 -64 -55 -28 -37 -116 0 0 -165 -128 -59 -48 -31
0 0 0 0 0 0 0 0 0 0 -4 -9 -52 -27 -148 -213 -113 -192 -228 -132 -156 -25 -103 -84 -45 -43 -80 -88 -115 -95 -70 -32 -35 -55 -29 -42 -117 0 0 -156 -108 -67 -56 -48
0 0 0 0 0 0 0 0 0 0 0 -3 -6 -102 -215 -244 -290 -286 -52 -315 -263 -93 -98 -136 -48 -53 -62 -99 -83 -88 -88 -34 -29 -48 -36 -51 -44 -101 -145 -154 -152 -106 -143 -65
-22 0 0 0 0 0 0 0 0 -23 -1 0 -88 -127 -171 -68 -111 0 0 -322 -308 -157 -195 -155 -182 -269 -54 -142 -98 -92 -94 -59 -35 -39 -37 -39 -45 -57 -128 -61 -247 -137 -220 -126
0 0 0 0 0 0 0 -4 0 0 -17 -12 -41 -67 -77 -52 -89 0 0 0 0 0 -280 -227 0 0 -127 -147 -83 -46 -84 -79 -59 -42 -28 -44 -40 -42 -60 -85 -85 -95 -147 -172
0 0 -8 -22 0 0 -10 0 -44 0 0 0 -68 -61 -131 -14 0 0 0 0 0 0 0 0 0 0 0 0 -140 -172 -216 -109 -62 -62 -48 -43 -48 -46 -57 -32 -44 -97 -185 -280
0 0 0 0 -30 0 0 -18 -45 -5 0 -160 -78 -120 -8 0 0 0 0 0 0 0 0 0 0 0 0 0 0 0 -11 0 0 -12 -117 -44 -51 -45 -44 -42 -57 -63 -140 -197
0 0 0 -33 -23 0 0 0 0 0 0 -106 -35 -65 0 0 0 0 0 0 0 0 0 0 0 0 0 0 0 0 0 0 -49 0 -149 -125 -50 -38 -37 -40 -36 -38 -158 -232
0 0 0 0 0 0 0 0 0 0 0 -88 -82 -42 0 0 0 0 0 0 0 0 0 0 0 0 0 0 0 0 0 0 -24 0 0 -208 -181 -243 -144 -51 -38 -43 -45 -55
0 0 0 -1 0 0 0 0 0 0 0 -51 -94 -154 0 0 0 0 0 0 0 0 0 0 0 0 0 0 0 0 0 0 0 0 0 0 -143 0 -34 -245 -68 -39 -36 -34
0 -44 0 0 0 0 0 0 0 0 -62 -127 -67 -148 0 0 0 0 0 0 0 0 0 0 0 0 0 0 0 0 0 0 0 0 0 0 0 -122 -93 -91 -15 -41 -25 -30
-11 -91 0 0 0 0 0 0 0 -63 -42 -53 -105 0 0 0 0 0 0 0 0 0 0 0 0 0 0 0 0 0 0 0 0 0 0 0 0 0 0 -163 -96 -321 -74 -21
0 -60 -6 0 0 0 0 0 0 0 -12 -38 0 0 0 0 0 0 0 0 0 0 0 0 0 0 0 0 0 0 0 0 0 0 0 0 0 0 0 -58 -248 0 -220 -101
0 0 -12 0 0 0 0 0 0 0 -20 -12 -101 0 0 0 0 0 0 0 0 0 0 0 0 0 0 0 0 0 0 0 0 0 0 0 0 0 0 0 0 0 -20 -222
0 0 0 -64 -47 -1 0 0 0 0 -2 -14 -31 0 0 0 0 0 0 0 0 0 0 0 0 0 0 0 0 0 0 0 0 0 0 0 0 0 0 0 0 0 0 0
0 0 0 -2 -23 -63 -5 0 0 0 -82 -22 -14 0 0 0 0 0 0 0 0 0 0 0 0 0 0 0 0 0 0 0 0 0 0 0 0 0 0 0 0 0 0 0
0 -14 -18 0 -13 -18 0 0 0 0 0 0 0 0 0 0 0 0 0 0 0 0 0 0 0 0 0 0 0 0 0 0 0 0 0 0 0 0 0 0 0 0 0 0
0 -44 -3 -10 -33 0 0 0 -74 0 0 0 0 0 0 0 0 0 0 0 0 0 0 0 0 0 0 0 0 0 0 0 0 0 0 0 0 0 0 0 0 0 0 0
-1 0 0 0 -13 -23 0 -31 0 0 0 0 0 0 0 0 0 0 0 0 0 0 0 0 0 0 0 0 0 0 0 0 0 0 0 0 0 0 0 0 0 0 0 0
-16 -9 -5 0 0 0 -3 0 0 0 0 0 0 0 0 0 0 0 0 0 0 0 0 0 0 0 0 0 0 0 0 0 0 0 0 0 0 0 0 0 0 0 0 0
-5 -15 -20 -29 -45 -20 -17 -17 0 0 0 0 0 0 0 0 0 0 0 0 0 0 0 0 0 0 0 0 0 0 0 0 0 0 0 0 0 0 0 0 0 0 0 0
Wind_Speed
7 5 8 11 11 13 10 8 13 6 8 14 18 3 20 13 4 20 17 15 14 12 10 5 12 14 14 10 10 9 11 8 6 2 3 2 3 2 2 3 5 4 2 3
5 8 12 16 15 16 15 12 5 7 13 13 10 12 13 9 9 19 15 12 16 13 13 9 10 14 15 11 9 10 8 8 5 4 2 2 2 2 3 2 4 5 5 5
8 12 18 17 15 15 13 8 6 9 9 18 2 6 9 10 13 13 11 8 9 16 16 13 15 15 15 14 10 10 10 8 7 6 4 3 4 3 2 3 2 4 5 4
12 19 17 15 12 11 8 10 12 18 13 10 18 6 6 11 16 16 15 12 9 8 13 11 14 12 16 13 12 9 10 8 7 6 4 6 4 3 2 3 3 5 6 4
10 15 13 13 14 10 10 9 2 9 5 4 17 1 8 17 13 15 11 12 13 12 10 12 13 15 14 13 13 11 10 8 7 6 5 5 4 4 1 2 5 4 4 5
13 10 11 8 9 12 10 9 8 9 7 5 10 16 3 16 18 15 6 10 12 14 10 9 11 12 14 13 12 12 11 9 7 7 6 5 8 7 4 1 0 4 2 3
10 14 10 10 6 7 4 4 3 1 2 3 13 1 1 13 14 15 15 24 14 17 18 16 13 14 13 14 13 13 10 10 8 8 7 6 7 6 5 3 4 3 2 0
6 6 8 8 6 8 7 6 5 5 4 7 6 7 5 9 16 18 7 13 11 9 2 8 12 17 17 14 16 16 13 8 8 7 7 6 7 4 4 5 4 3 3 3
2 7 6 8 4 5 8 10 10 3 6 2 6 8 10 9 9 14 15 14 14 10 11 6 1 9 9 12 14 16 14 12 10 8 6 7 7 7 7 7 5 5 4 4
4 6 8 10 8 10 9 3 6 2 2 3 7 7 9 11 14 13 12 12 12 12 9 12 5 9 10 8 2 12 14 14 13 9 9 7 7 7 6 7 9 6 5 7
6 1 8 5 7 11 1 3 1 2 1 6 5 3 7 13 14 14 10 9 9 11 12 7 3 5 12 10 11 11 10 4 8 11 8 8 7 7 7 6 5 7 6 5
7 2 3 5 8 3 4 6 8 5 6 5 4 2 7 10 12 14 11 10 8 9 8 8 9 9 10 10 9 9 10 12 11 10 7 12 9 8 7 7 8 8 10 7
6 6 4 9 7 5 4 6 6 1 1 6 9 4 11 10 11 11 11 11 9 9 10 9 8 9 9 8 12 6 7 9 8 10 13 8 6 8 8 8 7 6 11 9
1 4 2 5 6 5 8 17 9 3 0 3 6 11 13 14 12 9 10 11 9 9 11 8 8 8 7 6 9 4 6 6 3 8 9 9 6 5 4 7 8 7 7 9
2 1 4 7 5 8 9 16 12 8 4 6 16 14 14 14 12 12 11 10 9 9 9 9 7 6 4 8 7 7 5 9 8 9 6 8 5 7 9 11 8 6 6 7
3 5 2 5 10 11 9 17 10 8 10 13 17 15 15 15 14 11 13 12 10 7 10 8 7 6 5 6 6 6 7 7 5 7 6 8 11 7 6 7 15 5 6 7
3 3 4 4 8 11 5 7 10 12 13 10 12 15 19 16 15 12 12 10 8 10 9 8 6 5 5 6 6 6 5 4 6 7 7 9 8 8 7 5 6 9 6 6
4 3 3 2 8 2 5 11 9 9 7 11 19 19 17 13 13 13 10 9 8 8 8 7 5 4 5 5 6 6 4 6 6 5 4 5 3 4 4 6 4 5 5 6
4 2 2 5 4 6 10 4 5 4 8 7 12 17 20 19 17 9 9 9 9 8 7 6 4 6 7 8 5 6 6 7 7 7 5 5 3 2 5 5 6 6 4 6
7 3 5 3 1 5 1 8 8 5 3 7 7 14 19 13 7 5 8 10 10 9 7 7 8 8 10 8 8 8 8 9 9 8 7 6 6 6 7 6 5 6 7 7
2 3 1 3 3 2 4 6 5 5 4 4 7 8 8 6 5 9 11 10 9 8 7 7 8 7 7 7 8 8 9 9 7 7 8 8 8 8 7 8 5 5 5 6
3 2 1 1 2 2 9 7 4 3 5 9 14 14 15 12 10 10 10 9 9 8 6 7 7 6 6 7 7 7 7 6 7 7 7 7 6 6 7 8 8 8 8 8
1 3 4 3 4 1 7 6 3 6 6 5 8 9 10 9 9 9 8 8 7 8 6 7 7 7 6 6 6 7 5 6 7 7 7 7 7 6 5 6 7 7 6 5
5 3 3 5 1 6 5 4 4 5 5 5 6 8 7 8 9 8 8 7 7 7 7 7 7 6 6 7 6 6 6 7 7 7 7 7 7 8 7 7 6 5 5 7
4 1 4 5 5 3 3 7 7 4 2 5 7 7 5 9 9 9 7 8 7 7 7 6 6 6 5 6 6 6 6 6 6 6 6 7 8 8 9 8 6 7 7 7
1 2 3 4 4 2 5 6 11 9 8 6 6 6 6 7 8 8 8 7 6 6 7 7 5 5 6 7 6 6 6 6 6 6 6 6 7 8 8 8 9 10 12 15
Wind_Direction
218 116 210 230 241 247 257 208 228 164 43 101 115 118 157 194 256 171 179 169 158 154 147 138 130 135 143 135 141 127 150 140 141 128 128 137 161 129 138 171 238 227 176 183
134 220 226 221 232 246 254 267 271 135 91 90 156 184 228 185 206 175 166 162 165 153 170 151 150 149 151 152 147 128 150 139 156 155 131 140 150 79 107 122 233 186 193 192
217 210 225 237 230 234 242 245 226 160 132 97 114 214 186 227 201 161 160 153 159 160 174 167 160 159 154 157 152 142 159 157 169 159 112 87 84 93 94 187 187 202 189 203
221 253 210 234 243 226 244 233 254 141 152 162 169 223 216 184 174 178 176 162 184 160 174 178 166 150 157 164 155 147 160 165 187 149 138 156 169 147 223 187 189 174 189 201
245 232 246 216 237 238 243 251 224 134 192 194 191 242 216 177 192 179 179 180 182 191 176 184 161 158 152 161 167 158 155 164 189 165 159 173 151 126 171 72 178 163 176 178
235 236 233 240 215 249 254 272 308 182 192 254 244 188 177 185 181 165 56 315 199 193 190 190 181 172 164 167 161 165 155 173 186 175 179 161 150 163 154 72 300 157 190 192
249 245 222 242 241 260 256 315 301 9 66 183 257 315 208 132 145 143 163 217 232 216 190 190 180 174 166 179 167 168 164 172 186 172 183 173 155 150 158 196 167 201 178 224
219 254 246 216 194 202 236 212 183 161 165 234 236 136 216 162 154 172 238 183 209 180 226 192 177 170 176 181 166 171 175 169 176 174 189 187 158 151 184 193 173 183 177 198
23 234 271 177 189 210 248 250 237 309 227 200 126 51 37 87 100 72 57 69 41 47 76 41 56 10 219 168 173 171 176 181 180 181 187 189 183 164 186 219 196 183 186 145
28 333 292 269 184 236 200 274 262 336 205 190 135 148 152 164 113 82 56 51 46 32 52 71 22 43 38 7 337 176 175 182 188 178 193 192 188 181 193 177 211 167 153 140
342 165 307 269 183 205 111 332 15 60 135 172 127 359 17 105 100 95 77 60 47 45 31 42 25 72 59 32 53 47 27 319 202 193 191 191 190 202 188 194 207 161 158 165
348 299 329 288 303 304 301 208 180 147 291 83 58 99 89 92 89 101 103 78 68 72 59 50 30 39 65 78 70 54 60 41 16 356 302 194 191 183 193 201 210 163 167 177
324 339 10 327 312 23 337 300 288 292 339 182 140 135 108 99 92 98 107 101 76 81 74 70 69 50 56 59 68 54 69 56 12 23 5 331 222 187 198 196 203 206 157 187
14 16 7 219 288 341 343 339 284 246 259 79 136 133 135 121 114 101 99 99 103 81 82 81 64 61 78 81 91 36 58 97 142 56 14 346 9 2 305 204 195 197 192 180
18 207 76 332 295 310 328 315 260 257 248 118 162 145 137 128 125 122 113 107 103 97 93 87 86 79 69 76 74 73 39 47 44 78 38 7 301 19 346 13 303 209 210 198
329 355 89 287 316 322 332 322 273 284 103 116 127 121 122 119 127 133 128 130 119 109 100 101 121 116 113 109 96 89 73 58 67 61 43 30 9 17 352 1 315 264 247 222
324 72 37 311 341 302 334 323 360 70 93 105 121 125 132 139 139 135 127 121 118 128 117 104 86 78 103 88 123 120 138 119 83 77 53 39 359 16 327 62 289 351 324 254
343 30 91 4 9 241 299 15 4 66 79 101 124 142 145 136 119 113 112 111 104 89 87 99 104 99 98 94 74 90 113 121 124 115 120 116 85 359 337 337 344 341 330 331
330 17 352 133 163 281 318 28 359 27 105 131 124 118 113 109 97 77 100 101 100 96 78 68 43 78 51 38 42 42 56 80 75 59 51 47 62 344 340 345 336 326 341 337
323 123 116 352 297 210 217 52 6 5 5 134 130 136 132 134 123 165 123 102 88 78 63 51 45 53 47 21 18 25 23 47 37 26 18 14 11 1 334 323 333 344 337 307
314 8 190 277 271 53 324 49 334 96 237 38 115 121 124 97 125 124 92 84 91 100 80 75 63 64 56 33 32 28 36 27 10 16 12 5 356 341 342 350 337 310 299 285
358 63 263 290 274 191 12 29 51 167 40 73 73 89 96 102 99 102 107 102 102 97 83 94 88 81 70 55 43 34 29 2 8 1 358 351 345 336 330 321 318 314 310 305
280 140 196 100 200 49 57 100 65 73 75 69 96 112 110 114 115 116 119 119 124 120 93 71 64 54 56 51 67 47 356 17 9 360 349 342 333 321 307 302 299 305 298 294
215 172 138 53 180 155 158 125 102 91 112 92 117 105 123 126 120 123 121 116 104 91 89 77 58 47 39 45 41 33 24 21 16 1 345 333 320 332 344 338 326 317 323 319
204 25 204 199 249 289 196 162 148 131 94 146 129 139 156 127 132 128 127 113 112 118 111 103 87 59 50 42 34 37 33 30 9 354 340 347 347 331 329 325 318 315 314 316
246 263 158 221 354 323 235 191 173 161 178 170 147 137 119 117 135 123 119 129 136 122 125 106 113 106 70 49 32 26 25 28 14 352 345 338 342 331 325 321 312 302 296 297